| time (UTC) | temp F | wind direction | speed MPH | gust MPH | rain 1hr in | rain 24hr in | rain mn in | humidity % | barometer mb |
| 20260503224529 | 38 | 0.0 | 2.0 | 0.00 | 0.00 | 0.00 | 66 | 1006.5 | |
| 20260503223530 | 39 | 0.0 | 2.0 | 0.00 | 0.00 | 0.00 | 65 | 1006.6 | |
| 20260503222530 | 40 | 0.0 | 0.0 | 0.00 | 0.00 | 0.00 | 64 | 1006.5 | |
| 20260503221529 | 41 | 0.0 | 1.0 | 0.00 | 0.00 | 0.00 | 62 | 1006.6 | |
| 20260503220529 | 42 | 0.0 | 3.0 | 0.00 | 0.00 | 0.00 | 61 | 1006.8 | |
| 20260503215530 | 43 | 315 | 1.0 | 6.0 | 0.00 | 0.00 | 0.00 | 58 | 1006.8 |
| 20260503214549 | 43 | 315 | 2.0 | 5.0 | 0.00 | 0.00 | 0.00 | 57 | 1006.8 |
| 20260503213529 | 44 | 315 | 2.0 | 4.0 | 0.00 | 0.00 | 0.00 | 55 | 1006.8 |
| 20260503212550 | 45 | 293 | 1.0 | 3.0 | 0.00 | 0.00 | 0.00 | 53 | 1006.9 |
| 20260503211530 | 46 | 293 | 1.0 | 7.0 | 0.00 | 0.00 | 0.00 | 51 | 1007.0 |
| 20260503210530 | 46 | 315 | 2.0 | 4.0 | 0.00 | 0.00 | 0.00 | 51 | 1007.0 |
| 20260503205551 | 46 | 315 | 2.0 | 6.0 | 0.00 | 0.00 | 0.00 | 51 | 1007.0 |
| 20260503204530 | 47 | 315 | 3.0 | 6.0 | 0.00 | 0.00 | 0.00 | 51 | 1007.0 |
| 20260503203529 | 47 | 315 | 1.0 | 6.0 | 0.00 | 0.00 | 0.00 | 51 | 1007.0 |
| 20260503202530 | 47 | 315 | 1.0 | 4.0 | 0.00 | 0.00 | 0.00 | 51 | 1007.0 |
| 20260503201530 | 46 | 315 | 2.0 | 5.0 | 0.00 | 0.00 | 0.00 | 52 | 1007.0 |
| 20260503200531 | 46 | 293 | 2.0 | 7.0 | 0.00 | 0.00 | 0.00 | 53 | 1007.0 |
| 20260503195530 | 46 | 293 | 2.0 | 5.0 | 0.00 | 0.00 | 0.00 | 56 | 1007.0 |
| 20260503194529 | 46 | 0.0 | 2.0 | 0.00 | 0.00 | 0.00 | 55 | 1007.0 | |
| 20260503193530 | 47 | 293 | 2.0 | 3.0 | 0.00 | 0.00 | 0.00 | 53 | 1006.9 |
| 20260503192530 | 47 | 0.0 | 2.0 | 0.00 | 0.00 | 0.00 | 55 | 1006.9 | |
| 20260503191529 | 48 | 0.0 | 3.0 | 0.00 | 0.00 | 0.00 | 51 | 1006.9 | |
| 20260503190531 | 49 | 0.0 | 2.0 | 0.00 | 0.00 | 0.00 | 51 | 1006.8 | |
| 20260503185529 | 49 | 0.0 | 0.0 | 0.00 | 0.00 | 0.00 | 51 | 1006.8 | |
| 20260503184530 | 50 | 0.0 | 0.0 | 0.00 | 0.00 | 0.00 | 50 | 1006.8 | |
| 20260503183533 | 50 | 0.0 | 1.0 | 0.00 | 0.00 | 0.00 | 48 | 1006.7 | |
| 20260503182530 | 51 | 293 | 1.0 | 3.0 | 0.00 | 0.00 | 0.00 | 47 | 1006.7 |
| 20260503181531 | 51 | 293 | 1.0 | 3.0 | 0.00 | 0.00 | 0.00 | 46 | 1006.6 |
| 20260503180529 | 52 | 293 | 1.0 | 4.0 | 0.00 | 0.00 | 0.00 | 46 | 1006.6 |
| 20260503175530 | 53 | 0.0 | 2.0 | 0.00 | 0.00 | 0.00 | 45 | 1006.5 | |
| 20260503174531 | 53 | 0.0 | 2.0 | 0.00 | 0.00 | 0.00 | 44 | 1006.4 | |
| 20260503173530 | 54 | 293 | 1.0 | 4.0 | 0.00 | 0.00 | 0.00 | 43 | 1006.4 |
| 20260503172530 | 54 | 293 | 1.0 | 2.0 | 0.00 | 0.00 | 0.00 | 43 | 1006.3 |
| 20260503171530 | 54 | 293 | 2.0 | 8.0 | 0.00 | 0.00 | 0.00 | 41 | 1006.3 |
| 20260503170531 | 55 | 293 | 2.0 | 4.0 | 0.00 | 0.00 | 0.00 | 40 | 1006.3 |
| 20260503150529 | 57 | 270 | 3.0 | 7.0 | 0.00 | 0.00 | 0.00 | 41 | 1006.7 |
| 20260503130530 | 56 | 248 | 2.0 | 9.0 | 0.00 | 0.00 | 0.00 | 51 | 1007.2 |
| 20260503110530 | 55 | 293 | 6.0 | 15.0 | 0.00 | 0.00 | 0.00 | 61 | 1007.4 |
| 20260503081530 | 53 | 315 | 3.0 | 9.0 | 0.00 | 0.00 | 0.00 | 65 | 1006.7 |
| 20260503080530 | 53 | 0 | 2.0 | 9.0 | 0.00 | 0.00 | 0.00 | 66 | 1006.5 |
| 20260503072530 | 51 | 315 | 3.0 | 6.0 | 0.00 | 0.00 | 0.00 | 69 | 1006.3 |
| 20260503071530 | 51 | 315 | 3.0 | 6.0 | 0.00 | 0.00 | 0.00 | 69 | 1006.3 |
| 20260503070530 | 51 | 315 | 4.0 | 11.0 | 0.00 | 0.00 | 0.00 | 70 | 1006.2 |
| 20260503054532 | 47 | 0 | 4.0 | 11.0 | 0.00 | 0.00 | 0.00 | 77 | 1005.8 |
| 20260503053531 | 47 | 23 | 5.0 | 11.0 | 0.00 | 0.00 | 0.00 | 78 | 1005.9 |
| 20260503052530 | 47 | 338 | 4.0 | 12.0 | 0.00 | 0.00 | 0.00 | 77 | 1006.0 |
| 20260503051530 | 47 | 23 | 4.0 | 8.0 | 0.00 | 0.00 | 0.00 | 77 | 1005.8 |
| 20260503050530 | 47 | 23 | 2.0 | 9.0 | 0.00 | 0.00 | 0.00 | 77 | 1005.5 |
| 20260503045530 | 48 | 23 | 4.0 | 9.0 | 0.00 | 0.00 | 0.00 | 77 | 1005.6 |
| 20260503044530 | 48 | 0 | 6.0 | 10.0 | 0.00 | 0.00 | 0.00 | 76 | 1005.7 |
| 20260503043531 | 48 | 338 | 3.0 | 8.0 | 0.00 | 0.00 | 0.00 | 76 | 1005.7 |
| 20260503042530 | 48 | 338 | 5.0 | 9.0 | 0.00 | 0.00 | 0.00 | 76 | 1005.6 |
| 20260503041530 | 49 | 0 | 3.0 | 6.0 | 0.00 | 0.00 | 0.00 | 75 | 1005.4 |
| 20260503040531 | 49 | 0 | 5.0 | 8.0 | 0.00 | 0.00 | 0.00 | 74 | 1005.2 |
| 20260503035530 | 49 | 0 | 4.0 | 12.0 | 0.00 | 0.00 | 0.00 | 74 | 1005.2 |
| 20260503034530 | 49 | 0 | 7.0 | 13.0 | 0.00 | 0.00 | 0.00 | 74 | 1005.0 |
| 20260503033530 | 49 | 0 | 7.0 | 13.0 | 0.00 | 0.00 | 0.00 | 73 | 1004.9 |
| 20260503032531 | 49 | 0 | 5.0 | 9.0 | 0.00 | 0.00 | 0.00 | 73 | 1004.9 |
| 20260503031530 | 49 | 338 | 6.0 | 12.0 | 0.00 | 0.00 | 0.00 | 73 | 1005.0 |
| 20260503030530 | 49 | 338 | 5.0 | 12.0 | 0.00 | 0.00 | 0.00 | 73 | 1004.9 |
| 20260503025530 | 49 | 0 | 4.0 | 9.0 | 0.00 | 0.00 | 0.00 | 73 | 1004.9 |
| 20260503024550 | 49 | 0 | 6.0 | 10.0 | 0.00 | 0.00 | 0.00 | 73 | 1004.8 |
| 20260503023530 | 49 | 0 | 4.0 | 9.0 | 0.00 | 0.00 | 0.00 | 72 | 1004.8 |
| 20260503023028 | 49 | 0 | 4.0 | 9.0 | 0.00 | 0.00 | 0.00 | 72 | 1004.8 |
| 20260503021531 | 50 | 0 | 5.0 | 10.0 | 0.00 | 0.00 | 0.00 | 71 | 1004.7 |
| 20260503020531 | 50 | 0 | 4.0 | 9.0 | 0.00 | 0.00 | 0.00 | 70 | 1004.7 |
| 20260503015530 | 49 | 23 | 5.0 | 11.0 | 0.00 | 0.00 | 0.00 | 71 | 1004.7 |
| 20260503014532 | 49 | 338 | 4.0 | 8.0 | 0.00 | 0.00 | 0.00 | 73 | 1004.6 |
| 20260503013531 | 48 | 338 | 2.0 | 5.0 | 0.00 | 0.00 | 0.00 | 74 | 1004.6 |
| 20260503012531 | 47 | 338 | 2.0 | 8.0 | 0.00 | 0.00 | 0.00 | 77 | 1004.7 |
| 20260503011551 | 47 | 315 | 3.0 | 8.0 | 0.00 | 0.00 | 0.00 | 77 | 1004.7 |
| 20260503010530 | 47 | 0.0 | 0.0 | 0.00 | 0.00 | 0.00 | 77 | 1004.8 | |
| 20260503005531 | 47 | 0.0 | 0.0 | 0.00 | 0.00 | 0.00 | 76 | 1004.7 | |
| 20260503004530 | 48 | 0.0 | 0.0 | 0.00 | 0.00 | 0.00 | 76 | 1004.8 | |
| 20260503003531 | 48 | 0.0 | 0.0 | 0.00 | 0.00 | 0.00 | 73 | 1004.9 | |
| 20260503002530 | 48 | 0.0 | 0.0 | 0.00 | 0.00 | 0.00 | 74 | 1004.9 | |
| 20260503001550 | 48 | 0.0 | 0.0 | 0.00 | 0.00 | 0.00 | 75 | 1004.8 | |
| 20260503000550 | 48 | 0.0 | 0.0 | 0.00 | 0.00 | 0.00 | 72 | 1004.6 | |
| 20260502235531 | 49 | 0.0 | 0.0 | 0.00 | 0.00 | 0.00 | 73 | 1004.6 | |
| 20260502234531 | 49 | 0.0 | 0.0 | 0.00 | 0.00 | 0.00 | 71 | 1004.5 | |
| 20260502233531 | 49 | 0.0 | 0.0 | 0.00 | 0.00 | 0.00 | 70 | 1004.5 | |
| 20260502232531 | 49 | 0.0 | 0.0 | 0.00 | 0.00 | 0.00 | 70 | 1004.6 | |
| 20260502231550 | 49 | 0.0 | 0.0 | 0.00 | 0.00 | 0.00 | 69 | 1004.5 | |
| 20260502230554 | 49 | 0.0 | 0.0 | 0.00 | 0.00 | 0.00 | 69 | 1004.6 | |
| 20260502225530 | 50 | 0.0 | 0.0 | 0.00 | 0.00 | 0.00 | 68 | 1004.7 |